"2010-07-16 00:00:00",3395,4.3,74.37,6.054,0.306,23.43,111.0901,27.7,28.6,17.82,0,111.5,13.07,28.55,36.4
"2010-07-16 00:00:30",3396,4.094,83.2,3.387,0.52,23.4,111.0857,27.69,28.58,17.59,0,111.5,13.07,28.53,45.2
"2010-07-16 00:01:00",3397,3.998,96.2,9.06,0.551,23.31,111.0823,27.68,28.58,17.51,0,111.5,13.07,28.53,58.2
"2010-07-16 00:01:30",3398,3.405,69.01,3.494,0.421,23.3,111.0793,27.67,28.57,17.71,0,111.5,13.07,28.52,31.0
"2010-07-16 00:02:00",3399,4.113,64.07,5.255,0.453,23.29,111.0784,27.67,28.56,17.77,0,111.5,13.07,28.51,26.1
"2010-07-16 00:02:30",3400,3.405,64.13,2.549,0.285,23.42,111.075,27.66,28.55,17.89,0,111.5,13.07,28.51,26.1
"2010-07-16 00:03:00",3401,3.52,52.13,4.144,0.704,23.44,111.0765,27.66,28.55,17.86,0,111.5,13.07,28.51,14.1
"2010-07-16 00:03:30",3402,3.924,53.16,7.793,0.428,23.45,111.0882,27.69,28.55,17.91,0,111.5,13.07,28.54,15.2
"2010-07-16 00:04:00",3403,3.23,57.47,7.729,0.437,23.42,111.096,27.71,28.57,17.75,0,111.5,13.07,28.56,19.5
"2010-07-16 00:04:30",3404,3.237,56.66,8.67,0.229,23.36,111.1023,27.73,28.58,17.74,0,111.5,13.07,28.58,18.7
"2010-07-16 00:05:00",3405,3.209,50.81,9.01,0.333,23.4,111.1059,27.74,28.57,17.79,0,111.5,13.07,28.59,12.8
"2010-07-16 00:05:30",3406,2.089,72.94,23.59,0.312,23.31,111.1032,27.73,28.59,17.67,0,111.5,13.07,28.58,34.9
"2010-07-16 00:06:00",3407,3.499,68.42,9.36,0.329,23.41,111.1029,27.73,28.56,17.94,0,111.5,13.07,28.58,30.4
"2010-07-16 00:06:30",3408,2.78,83.2,3.182,0.235,23.28,111.1021,27.73,28.6,17.79,0,111.5,13.06,28.58,45.2
"2010-07-16 00:07:00",3409,3.219,88.1,3.984,0.16,23.26,111.0985,27.72,28.59,17.4,0,111.5,13.07,28.57,50.1
"2010-07-16 00:07:30",3410,4.197,83,2.734,0.275,23.31,111.0942,27.71,28.57,17.36,0,111.5,13.06,28.56,45.0
"2010-07-16 00:08:00",3411,4.75,73.17,6.863,0.565,23.33,111.1006,27.72,28.57,17.28,0,111.5,13.06,28.57,35.2
"2010-07-16 00:08:30",3412,4.853,84.4,3.888,0.35,23.29,111.1008,27.72,28.6,16.97,0,111.5,13.06,28.57,46.4
"2010-07-16 00:09:00",3413,5.135,89.2,2.485,0.221,23.29,111.1005,27.72,28.58,16.8,0,111.5,13.06,28.57,51.2
"2010-07-16 00:09:30",3414,4.692,86.3,2.685,0.223,23.28,111.1005,27.72,28.57,16.8,0,111.5,13.06,28.57,48.3
"2010-07-16 00:10:00",3415,3.906,79.47,6.771,0.232,23.28,111.0997,27.72,28.57,16.87,0,111.5,13.06,28.57,41.5
"2010-07-16 00:10:30",3416,3.821,76.75,3.029,0.23,23.31,111.0966,27.71,28.56,16.69,0,111.5,13.06,28.56,38.8
"2010-07-16 00:11:00",3417,3.763,77.8,2.825,0.222,23.3,111.0895,27.7,28.57,16.68,0,111.5,13.06,28.54,39.8
"2010-07-16 00:11:30",3418,4.237,79.93,2.868,0.232,23.33,111.0893,27.69,28.57,16.68,0,111.5,13.06,28.54,41.9
"2010-07-16 00:12:00",3419,4.331,82.8,2.327,0.17,23.4,111.0952,27.71,28.57,16.94,0,111.5,13.06,28.56,44.8
"2010-07-16 00:12:30",3420,3.758,85.8,2.614,0.348,23.34,111.1002,27.72,28.59,16.74,0,111.5,13.06,28.57,47.8
"2010-07-16 00:13:00",3421,3.91,77.08,4.999,0.402,23.33,111.1,27.72,28.59,16.62,0,111.5,13.06,28.57,39.1
"2010-07-16 00:13:30",3422,3.956,76.05,5.329,0.419,23.4,111.1008,27.72,28.57,16.75,0,111.5,13.06,28.57,38.1
"2010-07-16 00:14:00",3423,3.64,90.6,4.044,0.339,23.4,111.1002,27.72,28.58,16.74,0,111.5,13.06,28.57,52.6
"2010-07-16 00:14:30",3424,3.209,81.9,3.529,0.204,23.39,111.1005,27.72,28.59,16.75,0,111.5,13.06,28.57,43.9
"2010-07-16 00:15:00",3425,3.599,93.5,6.907,0.185,23.38,111.1015,27.73,28.59,16.64,0,111.5,13.06,28.57,55.5
"2010-07-16 00:15:30",3426,4.055,98.7,4.386,0.14,23.3,111.1005,27.72,28.6,16.61,0,111.5,13.06,28.57,60.7
"2010-07-16 00:16:00",3427,4.162,92.9,4.374,0.314,23.35,111.0999,27.72,28.61,16.62,0,111.5,13.06,28.57,54.9
"2010-07-16 00:16:30",3428,4.08,81.8,9.68,0.396,23.39,111.1008,27.72,28.59,16.68,0,111.5,13.06,28.57,43.8
"2010-07-16 00:17:00",3429,4.369,67.31,4.917,0.134,23.41,111.1051,27.74,28.61,16.74,0,111.5,13.06,28.58,29.3
"2010-07-16 00:17:30",3430,3.6,66.14,8.34,0.32,23.44,111.1056,27.74,28.6,16.81,0,111.5,13.06,28.59,28.1
"2010-07-16 00:18:00",3431,4.027,58.09,6.165,0.192,23.43,111.1094,27.75,28.61,16.72,0,111.5,13.06,28.59,20.1
"2010-07-16 00:18:30",3432,3.56,60.1,3.047,0.145,23.42,111.1096,27.75,28.62,16.68,0,111.5,13.06,28.60,22.1
"2010-07-16 00:19:00",3433,3.733,55.63,2.51,0.257,23.49,111.1108,27.75,28.62,16.55,0,111.5,13.06,28.60,17.6
"2010-07-16 00:19:30",3434,3.987,67.63,7.424,0.162,23.55,111.1173,27.77,28.62,16.62,0,111.5,13.06,28.62,29.6
"2010-07-16 00:20:00",3435,2.856,76.99,4.578,0.46,23.46,111.1268,27.79,28.63,16.75,0,111.5,13.06,28.64,39.0
"2010-07-16 00:20:30",3436,3.312,86.4,4.43,0.268,23.46,111.128,27.79,28.64,16.61,0,111.5,13.06,28.64,48.4
"2010-07-16 00:21:00",3437,3.493,85.3,5.799,0.276,23.36,111.1323,27.81,28.64,16.62,0,111.5,13.06,28.65,47.3
"2010-07-16 00:21:30",3438,2.963,79.94,6.391,0.329,23.31,111.1269,27.79,28.64,16.28,0,111.5,13.06,28.64,41.9
"2010-07-16 00:22:00",3439,3.287,75.51,7.04,0.232,23.29,111.1154,27.76,28.65,16.32,0,111.5,13.06,28.61,37.5
"2010-07-16 00:22:30",3440,3.547,73.41,3.058,0.467,23.3,111.1092,27.75,28.63,16.34,0,111.5,13.06,28.59,35.4
"2010-07-16 00:23:00",3441,4.379,80.4,3.017,0.3,23.4,111.1092,27.75,28.63,16.4,0,111.5,13.06,28.59,42.4
"2010-07-16 00:23:30",3442,4.588,85.4,2.828,0.339,23.35,111.1102,27.75,28.64,16.45,0,111.5,13.06,28.60,47.4
"2010-07-16 00:24:00",3443,4.032,78.53,8.33,0.444,23.46,111.1094,27.75,28.63,16.63,0,111.5,13.06,28.59,40.5
"2010-07-16 00:24:30",3444,4.583,76.7,7.149,0.421,23.46,111.1137,27.76,28.63,16.59,0,111.5,13.06,28.61,38.7
"2010-07-16 00:25:00",3445,5.311,77.43,4.157,0.328,23.4,111.1171,27.77,28.63,16.5,0,111.5,13.06,28.61,39.4
"2010-07-16 00:25:30",3446,5.41,75.77,5.637,0.22,23.51,111.111,27.75,28.64,16.54,0,111.5,13.06,28.60,37.8
"2010-07-16 00:26:00",3447,4.698,81.2,3.378,0.349,23.48,111.1095,27.75,28.63,16.4,0,111.5,13.06,28.60,43.2
"2010-07-16 00:26:30",3448,4.054,85.2,2.827,0.242,23.46,111.1095,27.75,28.64,16.3,0,111.5,13.06,28.60,47.2
"2010-07-16 00:27:00",3449,3.345,83.1,4.454,0.31,23.43,111.1099,27.75,28.63,16.25,0,111.5,13.06,28.60,45.1
"2010-07-16 00:27:30",3450,3.12,82.1,5.503,0.546,23.37,111.1108,27.75,28.63,16.37,0,111.5,13.06,28.60,44.1
"2010-07-16 00:28:00",3451,4.307,77.02,4.064,0.176,23.43,111.1108,27.75,28.64,16.47,0,111.5,13.05,28.60,39.0
"2010-07-16 00:28:30",3452,4.149,81.3,4.779,0.271,23.46,111.1099,27.75,28.64,16.47,0,111.5,13.06,28.60,43.3
"2010-07-16 00:29:00",3453,3.909,75.04,6.059,0.629,23.49,111.1099,27.75,28.64,16.46,0,111.5,13.06,28.60,37.0
"2010-07-16 00:29:30",3454,3.295,76.29,7.337,0.197,23.41,111.1096,27.75,28.64,16.36,0,111.5,13.05,28.60,38.3
"2010-07-16 00:30:00",3455,2.985,94.6,7.082,0.157,23.36,111.1086,27.74,28.64,16.31,0,111.5,13.06,28.59,56.6
"2010-07-16 00:30:30",3456,2.411,94.3,9.08,0.265,23.34,111.106,27.74,28.64,16.28,0,111.5,13.06,28.59,56.3
"2010-07-16 00:31:00",3457,2.598,81.2,3.864,0.265,23.39,111.1026,27.73,28.63,16.31,0,111.5,13.06,28.58,43.2
"2010-07-16 00:31:30",3458,3.073,75.9,4.183,0.15,23.31,111.1039,27.73,28.62,16.3,0,111.5,13.06,28.58,37.9
"2010-07-16 00:32:00",3459,3.187,73.5,4.566,0.374,23.38,111.1043,27.73,28.61,16.27,0,111.5,13.06,28.58,35.5
"2010-07-16 00:32:30",3460,2.542,74.4,8.03,0.263,23.36,111.104,27.73,28.62,16.28,0,111.5,13.06,28.58,36.4
"2010-07-16 00:33:00",3461,2.256,84.4,11.2,0.3,23.34,111.1033,27.73,28.62,16.26,0,111.5,13.06,28.58,46.4
"2010-07-16 00:33:30",3462,2.413,79.47,5.486,0.152,23.32,111.103,27.73,28.61,16.23,0,111.5,13.06,28.58,41.5
"2010-07-16 00:34:00",3463,3.082,84.3,2.756,0.329,23.36,111.1043,27.73,28.62,16.27,0,111.5,13.06,28.58,46.3
"2010-07-16 00:34:30",3464,3.535,91.3,8.55,0.549,23.43,111.1036,27.73,28.61,16.41,0,111.5,13.06,28.58,53.3
"2010-07-16 00:35:00",3465,4.199,86.8,4.899,0.179,23.37,111.1033,27.73,28.62,16.28,0,111.5,13.06,28.58,48.8
"2010-07-16 00:35:30",3466,3.754,84.1,3.551,0.346,23.38,111.1072,27.74,28.61,16.3,0,111.5,13.06,28.59,46.1
"2010-07-16 00:36:00",3467,3.264,84.3,7.334,0.422,23.41,111.1072,27.74,28.63,16.25,0,111.5,13.06,28.59,46.3
"2010-07-16 00:36:30",3468,2.851,82.6,7.415,0.248,23.32,111.1033,27.73,28.62,16.14,0,111.5,13.06,28.58,44.6
"2010-07-16 00:37:00",3469,2.356,73.18,3.002,0.23,23.3,111.1036,27.73,28.62,16.2,0,111.5,13.06,28.58,35.2
"2010-07-16 00:37:30",3470,2.718,89.2,4.676,0.26,23.3,111.1021,27.73,28.61,16.17,0,111.4,13.06,28.58,51.2
"2010-07-16 00:38:00",3471,2.596,86.8,7.335,0.161,23.3,111.1061,27.74,28.61,16.12,0,111.5,13.06,28.59,48.8
"2010-07-16 00:38:30",3472,2.185,82.3,6.252,0.228,23.31,111.1033,27.73,28.6,16.12,0,111.5,13.06,28.58,44.3
"2010-07-16 00:39:00",3473,2.664,91.5,6.744,0.2,23.29,111.1029,27.73,28.6,16.06,0,111.5,13.06,28.58,53.5
"2010-07-16 00:39:30",3474,2.698,76.8,12.11,0.188,23.27,111.1003,27.72,28.59,16.14,0,111.4,13.06,28.57,38.8
"2010-07-16 00:40:00",3475,2.708,81.2,5.999,0.267,23.29,111.1014,27.73,28.58,16.15,0,111.5,13.06,28.57,43.2
"2010-07-16 00:40:30",3476,2.843,84.6,2.486,0.152,23.32,111.1017,27.73,28.6,16.21,0,111.5,13.06,28.58,46.6
"2010-07-16 00:41:00",3477,2.738,90.6,6.774,0.209,23.32,111.1043,27.73,28.59,16.19,0,111.5,13.06,28.58,52.6
"2010-07-16 00:41:30",3478,2.831,103.7,4.262,0.184,23.27,111.1027,27.73,28.6,16.05,0,111.5,13.06,28.58,65.7
"2010-07-16 00:42:00",3479,2.349,98.7,2.669,0.32,23.28,111.103,27.73,28.6,16.02,0,111.4,13.06,28.58,60.7
"2010-07-16 00:42:30",3480,3.012,92.7,3.833,0.326,23.27,111.1024,27.73,28.59,16.08,0,111.5,13.06,28.58,54.7
"2010-07-16 00:43:00",3481,4.151,79.96,3.697,0.28,23.45,111.1058,27.74,28.61,16.49,0,111.4,13.06,28.59,42.0
"2010-07-16 00:43:30",3482,4.23,79.82,3.015,0.324,23.46,111.1038,27.73,28.62,16.59,0,111.5,13.06,28.58,41.8
"2010-07-16 00:44:00",3483,3.854,78.29,4.227,0.288,23.43,111.1057,27.74,28.6,16.53,0,111.5,13.05,28.59,40.3
"2010-07-16 00:44:30",3484,3.232,85,4.752,0.196,23.4,111.109,27.75,28.62,16.49,0,111.5,13.05,28.59,47.0
"2010-07-16 00:45:00",3485,2.978,92.6,3.078,0.221,23.38,111.1043,27.73,28.61,16.48,0,111.5,13.05,28.58,54.6
"2010-07-16 00:45:30",3486,2.921,90.1,5.974,0.158,23.33,111.1024,27.73,28.62,16.51,0,111.5,13.05,28.58,52.1
"2010-07-16 00:46:00",3487,2.572,82.2,9.32,0.33,23.34,111.1027,27.73,28.6,16.57,0,111.4,13.05,28.58,44.2
"2010-07-16 00:46:30",3488,3.234,75.87,5.519,0.241,23.36,111.1024,27.73,28.6,16.6,0,111.5,13.05,28.58,37.9
"2010-07-16 00:47:00",3489,3.212,64.33,3.456,0.163,23.35,111.1028,27.73,28.6,16.58,0,111.4,13.05,28.58,26.3
"2010-07-16 00:47:30",3490,2.812,70.77,3.897,0.353,23.42,111.0973,27.72,28.58,16.59,0,111.5,13.05,28.56,32.8
"2010-07-16 00:48:00",3491,2.49,83.1,4.472,0.172,23.41,111.0824,27.68,28.6,16.55,0,111.5,13.06,28.53,45.1
"2010-07-16 00:48:30",3492,3.112,79.73,8.35,0.236,23.32,111.078,27.67,28.58,16.47,0,111.4,13.06,28.51,41.7
"2010-07-16 00:49:00",3493,3.321,66.46,3.466,0.255,23.43,111.079,27.67,28.58,16.61,0,111.5,13.06,28.52,28.5
"2010-07-16 00:49:30",3494,2.781,60.36,2.417,0.113,23.41,111.0781,27.67,28.56,16.53,0,111.5,13.06,28.51,22.4
"2010-07-16 00:50:00",3495,2.515,60.34,4.205,0.307,23.45,111.079,27.67,28.56,16.46,0,111.5,13.06,28.52,22.3
"2010-07-16 00:50:30",3496,3.742,58.52,5.439,0.426,23.44,111.0796,27.67,28.58,16.56,0,111.4,13.06,28.52,20.5
"2010-07-16 00:51:00",3497,3.192,80.4,8.21,0.162,23.49,111.08,27.67,28.57,16.62,0,111.5,13.06,28.52,42.4
"2010-07-16 00:51:30",3498,2.99,90.3,3.632,0.285,23.46,111.0775,27.66,28.58,16.59,0,111.4,13.06,28.51,52.3
"2010-07-16 00:52:00",3499,3.404,71.49,9.65,0.235,23.33,111.0765,27.66,28.55,16.52,0,111.5,13.06,28.51,33.5
"2010-07-16 00:52:30",3500,3.505,69.06,11.01,0.204,23.39,111.0758,27.66,28.55,16.51,0,111.5,13.06,28.51,31.1
"2010-07-16 00:53:00",3501,4.027,85,5.446,0.426,23.46,111.0719,27.65,28.55,16.58,0,111.4,13.06,28.50,47.0
"2010-07-16 00:53:30",3502,3.612,71.31,8.68,0.473,23.4,111.074,27.66,28.55,16.55,0,111.5,13.06,28.50,33.3
"2010-07-16 00:54:00",3503,3.117,75.25,2.442,0.289,23.4,111.07,27.64,28.53,16.52,0,111.4,13.06,28.49,37.2
"2010-07-16 00:54:30",3504,2.762,84.1,2.386,0.302,23.42,111.0709,27.65,28.53,16.49,0,111.5,13.06,28.50,46.1
"2010-07-16 00:55:00",3505,2.748,91.3,4.678,0.225,23.38,111.0709,27.65,28.52,16.53,0,111.4,13.06,28.50,53.3
"2010-07-16 00:55:30",3506,2.782,77.51,3.455,0.187,23.34,111.0706,27.65,28.52,16.58,0,111.4,13.06,28.49,39.5
"2010-07-16 00:56:00",3507,3.19,85.1,2.355,0.199,23.36,111.0694,27.64,28.53,16.44,0,111.4,13.06,28.49,47.1
"2010-07-16 00:56:30",3508,3.718,85.9,3.527,0.352,23.37,111.0688,27.64,28.53,16.51,0,111.5,13.06,28.49,47.9
"2010-07-16 00:57:00",3509,3.902,87.8,2.292,0.209,23.35,111.0679,27.64,28.52,16.85,0,111.5,13.06,28.49,49.8
"2010-07-16 00:57:30",3510,3.543,79.14,4.265,0.181,23.44,111.0637,27.63,28.51,16.88,0,111.4,13.06,28.48,41.1
"2010-07-16 00:58:00",3511,3.139,75.39,8.14,0.238,23.41,111.0681,27.64,28.51,16.9,0,111.4,13.06,28.49,37.4
"2010-07-16 00:58:30",3512,4.218,82.8,3.468,0.212,23.38,111.0664,27.64,28.51,16.68,0,111.4,13.06,28.48,44.8
"2010-07-16 00:59:00",3513,4.091,82.6,2.117,0.225,23.42,111.0638,27.63,28.51,16.62,0,111.5,13.06,28.48,44.6
"2010-07-16 00:59:30",3514,3.936,80.6,2.602,0.3,23.4,111.0622,27.62,28.51,16.58,0,111.4,13.06,28.47,42.6
"2010-07-16 01:00:00",3515,3.782,74.46,4.357,0.157,23.41,111.0619,27.62,28.51,16.47,0,111.4,13.06,28.47,36.5
"2010-07-16 01:00:30",3516,3.791,81.1,3.293,0.201,23.44,111.0602,27.62,28.51,16.48,0,111.4,13.06,28.47,43.1
"2010-07-16 01:01:00",3517,3.545,81.8,2.102,0.095,23.44,111.0622,27.63,28.49,16.38,0,111.5,13.06,28.47,43.8
"2010-07-16 01:01:30",3518,3.398,86.4,5.736,0.221,23.47,111.0608,27.62,28.51,16.35,0,111.4,13.05,28.47,48.4
"2010-07-16 01:02:00",3519,2.933,103.2,4.275,0.22,23.4,111.0648,27.63,28.5,16.44,0,111.4,13.05,28.48,65.2
"2010-07-16 01:02:30",3520,2.685,97.2,3.863,0.319,23.37,111.0659,27.63,28.5,16.42,0,111.4,13.05,28.48,59.2
"2010-07-16 01:03:00",3521,3.282,86.5,6.051,0.356,23.4,111.065,27.63,28.5,16.38,0,111.4,13.05,28.48,48.5
"2010-07-16 01:03:30",3522,3.61,80.3,2.988,0.185,23.46,111.0663,27.64,28.5,16.4,0,111.4,13.05,28.48,42.3
"2010-07-16 01:04:00",3523,3.487,79.32,3.155,0.177,23.52,111.0657,27.63,28.49,16.36,0,111.4,13.05,28.48,41.3
"2010-07-16 01:04:30",3524,3.404,76.54,1.946,0.158,23.45,111.0643,27.63,28.5,16.3,0,111.4,13.05,28.48,38.5
"2010-07-16 01:05:00",3525,3.567,80.9,3.311,0.241,23.48,111.0605,27.62,28.5,16.3,0,111.4,13.06,28.47,42.9
"2010-07-16 01:05:30",3526,3.781,83.1,2.391,0.19,23.47,111.0653,27.63,28.5,16.31,0,111.4,13.06,28.48,45.1
"2010-07-16 01:06:00",3527,3.773,82.2,1.603,0.2,23.47,111.0668,27.64,28.49,16.28,0,111.4,13.06,28.49,44.2
"2010-07-16 01:06:30",3528,3.649,79.12,4.13,0.193,23.49,111.0676,27.64,28.5,16.32,0,111.4,13.06,28.49,41.1
"2010-07-16 01:07:00",3529,3.309,70.68,6.63,0.245,23.45,111.064,27.63,28.49,16.48,0,111.4,13.06,28.48,32.7
"2010-07-16 01:07:30",3530,3.797,77.3,2.372,0.375,23.53,111.0609,27.62,28.5,16.69,0,111.4,13.06,28.47,39.3
"2010-07-16 01:08:00",3531,4.189,82.2,3.336,0.154,23.55,111.0631,27.63,28.5,16.73,0,111.4,13.06,28.48,44.2
"2010-07-16 01:08:30",3532,3.828,82.8,2.357,0.23,23.5,111.0666,27.64,28.48,16.54,0,111.4,13.06,28.48,44.8
"2010-07-16 01:09:00",3533,4.118,89.7,2.839,0.223,23.48,111.0619,27.62,28.48,16.44,0,111.4,13.06,28.47,51.7
"2010-07-16 01:09:30",3534,4.711,95.5,5.337,0.197,23.49,111.0622,27.62,28.49,16.58,0,111.4,13.06,28.47,57.5
"2010-07-16 01:10:00",3535,3.953,95.7,2.339,0.29,23.51,111.0663,27.64,28.48,16.43,0,111.4,13.06,28.48,57.7
"2010-07-16 01:10:30",3536,3.434,92.9,9.22,0.382,23.44,111.0656,27.63,28.49,16.49,0,111.4,13.06,28.48,54.9
"2010-07-16 01:11:00",3537,3.666,78.04,7.771,0.193,23.5,111.0666,27.64,28.49,16.5,0,111.4,13.06,28.48,40.0
"2010-07-16 01:11:30",3538,4.251,82.2,2.786,0.501,23.5,111.0652,27.63,28.48,16.61,0,111.4,13.06,28.48,44.2
"2010-07-16 01:12:00",3539,4.264,81.1,2.867,0.175,23.52,111.0642,27.63,28.48,16.57,0,111.4,13.06,28.48,43.1
"2010-07-16 01:12:30",3540,4.305,79.64,4.478,0.104,23.53,111.0623,27.63,28.48,16.35,0,111.4,13.06,28.47,41.6
"2010-07-16 01:13:00",3541,4.072,83.7,4.863,0.282,23.53,111.0609,27.62,28.48,16.48,0,111.4,13.06,28.47,45.7
"2010-07-16 01:13:30",3542,4.063,74.52,2.19,0.118,23.5,111.0606,27.62,28.47,16.27,0,111.4,13.06,28.47,36.5
"2010-07-16 01:14:00",3543,3.661,75.42,1.297,0.113,23.53,111.0606,27.62,28.49,16.19,0,111.4,13.06,28.47,37.4
"2010-07-16 01:14:30",3544,3.981,77.82,2.297,0.263,23.55,111.0606,27.62,28.47,16.17,0,111.4,13.06,28.47,39.8
"2010-07-16 01:15:00",3545,4.538,85.2,3.769,0.29,23.55,111.0606,27.62,28.47,16.66,0,111.4,13.06,28.47,47.2
"2010-07-16 01:15:30",3546,4.086,85.2,3.363,0.298,23.53,111.0606,27.62,28.46,16.82,0,111.4,13.06,28.47,47.2
"2010-07-16 01:16:00",3547,4.225,83,1.417,0.218,23.53,111.059,27.62,28.46,17.02,0,111.4,13.06,28.46,45.0
"2010-07-16 01:16:30",3548,4.169,80.2,6.914,0.158,23.53,111.05,27.59,28.46,17.25,0,111.4,13.06,28.44,42.2
"2010-07-16 01:17:00",3549,4.486,83.5,1.4,0.123,23.54,111.0399,27.57,28.46,17.11,0,111.4,13.06,28.42,45.5
"2010-07-16 01:17:30",3550,4.553,83.3,1.263,0.212,23.51,111.0354,27.56,28.44,17.36,0,111.4,13.06,28.40,45.3
"2010-07-16 01:18:00",3551,4.78,83.7,1.768,0.237,23.53,111.0312,27.55,28.44,17.5,0,111.4,13.06,28.39,45.7
"2010-07-16 01:18:30",3552,4.917,82.6,2.101,0.289,23.57,111.0276,27.54,28.41,17.29,0,111.4,13.06,28.38,44.6
"2010-07-16 01:19:00",3553,4.895,85.9,2.263,0.265,23.55,111.027,27.53,28.42,16.99,0,111.4,13.06,28.38,47.9
"2010-07-16 01:19:30",3554,4.824,92.2,2.636,0.144,23.56,111.0276,27.54,28.41,16.87,0,111.4,13.06,28.38,54.2
"2010-07-16 01:20:00",3555,4.967,87.8,1.928,0.271,23.55,111.0292,27.54,28.41,17.07,0,111.4,13.06,28.39,49.8
"2010-07-16 01:20:30",3556,5.036,89.7,1.741,0.186,23.55,111.0304,27.54,28.42,16.99,0,111.4,13.06,28.39,51.7
"2010-07-16 01:21:00",3557,4.895,88.2,1.507,0.077,23.54,111.0326,27.55,28.41,16.89,0,111.4,13.06,28.40,50.2
"2010-07-16 01:21:30",3558,4.68,90.5,1.149,0.127,23.56,111.0345,27.55,28.41,16.99,0,111.4,13.06,28.40,52.5
"2010-07-16 01:22:00",3559,4.622,82.5,2.274,0.108,23.54,111.0348,27.55,28.4,17.12,0,111.4,13.06,28.40,44.5
"2010-07-16 01:22:30",3560,4.766,88.1,3.349,0.176,23.55,111.034,27.55,28.39,16.96,0,111.4,13.06,28.40,50.1
"2010-07-16 01:23:00",3561,5.019,90.2,1.677,0.121,23.57,111.0343,27.55,28.4,16.57,0,111.4,13.06,28.40,52.2
"2010-07-16 01:23:30",3562,4.643,89.7,2.361,0.096,23.54,111.0341,27.55,28.4,16.92,0,111.4,13.07,28.40,51.7
"2010-07-16 01:24:00",3563,4.371,92.9,1.891,0.119,23.55,111.0347,27.55,28.4,16.44,0,111.4,13.07,28.40,54.9
"2010-07-16 01:24:30",3564,4.199,90.2,0.884,0.137,23.54,111.0338,27.55,28.37,16.41,0,111.4,13.07,28.40,52.2
"2010-07-16 01:25:00",3565,3.911,90.4,0.914,0.069,23.56,111.0324,27.55,28.39,16.2,0,111.4,13.07,28.40,52.4
"2010-07-16 01:25:30",3566,3.798,91,1.641,0.127,23.55,111.0358,27.56,28.39,16.36,0,111.4,13.07,28.41,53.0
"2010-07-16 01:26:00",3567,3.899,87.5,1,0.119,23.52,111.0355,27.56,28.41,16.86,0,111.4,13.07,28.40,49.5
"2010-07-16 01:26:30",3568,3.951,83.8,2.639,0.16,23.52,111.0327,27.55,28.41,16.68,0,111.4,13.07,28.40,45.8
"2010-07-16 01:27:00",3569,3.716,78.76,3.142,0.253,23.53,111.0262,27.53,28.4,17.01,0,111.4,13.07,28.38,40.8
"2010-07-16 01:27:30",3570,3.245,83.1,2.845,0.174,23.55,111.0125,27.5,28.39,16.93,0,111.4,13.07,28.34,45.1
"2010-07-16 01:28:00",3571,3.362,85.4,1.164,0.124,23.54,111.0114,27.49,28.38,16.82,0,111.4,13.07,28.34,47.4
"2010-07-16 01:28:30",3572,3.434,84.9,2.018,0.125,23.53,111.0083,27.49,28.39,16.84,0,111.4,13.07,28.33,46.9
"2010-07-16 01:29:00",3573,3.629,89.8,4.456,0.132,23.53,111.0038,27.47,28.38,17,0,111.4,13.07,28.32,51.8
"2010-07-16 01:29:30",3574,3.371,93.8,1.989,0.195,23.49,111.0033,27.47,28.37,16.82,0,111.4,13.07,28.32,55.8
"2010-07-16 01:30:00",3575,2.972,93.7,3.211,0.225,23.48,111.0027,27.47,28.38,16.79,0,111.4,13.07,28.32,55.7
"2010-07-16 01:30:30",3576,3.323,93.5,1.812,0.175,23.51,111.003,27.47,28.35,16.78,0,111.4,13.07,28.32,55.5
"2010-07-16 01:31:00",3577,3.578,91.3,3.015,0.219,23.47,111.0046,27.48,28.36,16.98,0,111.4,13.07,28.32,53.3
"2010-07-16 01:31:30",3578,3.859,83.8,0.935,0.153,23.47,111.0039,27.48,28.38,17.34,0,111.4,13.07,28.32,45.8
"2010-07-16 01:32:00",3579,3.508,86.5,1.492,0.185,23.51,111.0033,27.47,28.35,17.3,0,111.4,13.07,28.32,48.5
"2010-07-16 01:32:30",3580,3.676,88.4,2.227,0.159,23.51,111.0032,27.47,28.35,17.23,0,111.4,13.07,28.32,50.4
"2010-07-16 01:33:00",3581,3.814,90.2,2.308,0.113,23.53,110.9998,27.46,28.34,17.19,0,111.4,13.07,28.31,52.2
"2010-07-16 01:33:30",3582,3.589,83.2,3.372,0.232,23.52,110.9986,27.46,28.32,17.12,0,111.4,13.07,28.31,45.2
"2010-07-16 01:34:00",3583,3.777,82.8,1.767,0.277,23.55,110.9943,27.45,28.34,17.62,0,111.4,13.07,28.30,44.8
"2010-07-16 01:34:30",3584,3.774,82.5,2.6,0.297,23.52,110.9838,27.42,28.34,17.87,0,111.4,13.06,28.27,44.5
"2010-07-16 01:35:00",3585,3.666,83.6,2.894,0.112,23.57,110.9789,27.41,28.32,17.82,0,111.4,13.06,28.26,45.6
"2010-07-16 01:35:30",3586,3.912,82.7,2.044,0.093,23.54,110.974,27.4,28.33,17.87,0,111.4,13.06,28.25,44.7
"2010-07-16 01:36:00",3587,3.927,80.4,2.343,0.134,23.54,110.9718,27.39,28.32,18.03,0,111.4,13.06,28.24,42.4
"2010-07-16 01:36:30",3588,3.701,82.1,2.34,0.185,23.56,110.9688,27.38,28.3,17.99,0,111.4,13.06,28.23,44.1
"2010-07-16 01:37:00",3589,3.582,82.6,1.843,0.171,23.55,110.9622,27.37,28.27,17.89,0,111.4,13.06,28.22,44.6
"2010-07-16 01:37:30",3590,3.834,80.1,1.296,0.099,23.56,110.9515,27.34,28.25,17.54,0,111.4,13.06,28.19,42.1
"2010-07-16 01:38:00",3591,3.761,78.57,1.154,0.095,23.54,110.9457,27.33,28.25,17.27,0,111.4,13.06,28.17,40.6
"2010-07-16 01:38:30",3592,3.641,79.99,1.005,0.076,23.63,110.9436,27.32,28.24,17.33,0,111.4,13.06,28.17,42.0
"2010-07-16 01:39:00",3593,3.871,83.8,1.91,0.148,23.57,110.9444,27.32,28.24,17.26,0,111.4,13.06,28.17,45.8
"2010-07-16 01:39:30",3594,4.049,85.3,3.257,0.165,23.57,110.9447,27.32,28.24,17.23,0,111.4,13.06,28.17,47.3
"2010-07-16 01:40:00",3595,4.315,87.1,1.533,0.078,23.53,110.9503,27.34,28.23,17.17,0,111.4,13.07,28.18,49.1
"2010-07-16 01:40:30",3596,4.322,86.5,0.75,0.138,23.54,110.9556,27.35,28.22,17.08,0,111.4,13.07,28.20,48.5
"2010-07-16 01:41:00",3597,4.286,86.2,1.733,0.157,23.57,110.9584,27.36,28.24,17.15,0,111.4,13.07,28.21,48.2
"2010-07-16 01:41:30",3598,4.335,88.4,1.003,0.089,23.6,110.9603,27.36,28.22,17.17,0,111.4,13.07,28.21,50.4
"2010-07-16 01:42:00",3599,4.213,87.4,0.721,0.091,23.57,110.9625,27.37,28.23,17.11,0,111.4,13.07,28.22,49.4
"2010-07-16 01:42:30",3600,4.246,87.5,1.363,0.075,23.55,110.9634,27.37,28.23,17.08,0,111.4,13.07,28.22,49.5
"2010-07-16 01:43:00",3601,4.278,89.4,1.797,0.156,23.57,110.9634,27.37,28.23,16.94,0,111.3,13.07,28.22,51.4
"2010-07-16 01:43:30",3602,4.6,90.1,1.286,0.133,23.57,110.9634,27.37,28.22,16.89,0,111.4,13.07,28.22,52.1
"2010-07-16 01:44:00",3603,4.363,85,2.91,0.137,23.5,110.9634,27.37,28.22,17.05,0,111.4,13.07,28.22,47.0
"2010-07-16 01:44:30",3604,4.08,84.7,1.398,0.167,23.49,110.9631,27.37,28.23,17.19,0,111.3,13.07,28.22,46.7
"2010-07-16 01:45:00",3605,4.125,84.8,2.858,0.223,23.56,110.96,27.36,28.21,17.26,0,111.3,13.07,28.21,46.8
"2010-07-16 01:45:30",3606,4.242,86.6,2.607,0.179,23.57,110.9561,27.35,28.2,16.94,0,111.3,13.07,28.20,48.6
"2010-07-16 01:46:00",3607,4.53,87.9,2.104,0.095,23.57,110.9565,27.35,28.21,16.96,0,111.4,13.07,28.20,49.9
"2010-07-16 01:46:30",3608,4.199,85.2,1.819,0.178,23.57,110.957,27.35,28.21,16.96,0,111.3,13.07,28.20,47.2
"2010-07-16 01:47:00",3609,4.282,85.2,1.014,0.097,23.56,110.9542,27.35,28.21,17.02,0,111.3,13.07,28.19,47.2
"2010-07-16 01:47:30",3610,4.154,85.7,1.404,0.095,23.53,110.9507,27.34,28.21,17.13,0,111.3,13.07,28.19,47.7
"2010-07-16 01:48:00",3611,3.893,84.5,2.799,0.262,23.57,110.9431,27.32,28.2,17.3,0,111.3,13.07,28.17,46.5
"2010-07-16 01:48:30",3612,3.695,82.3,1.223,0.138,23.58,110.9401,27.31,28.19,17.45,0,111.3,13.07,28.16,44.3
"2010-07-16 01:49:00",3613,3.844,86.6,1.883,0.151,23.59,110.9389,27.31,28.17,17.28,0,111.3,13.07,28.16,48.6
"2010-07-16 01:49:30",3614,3.733,82.8,1.798,0.161,23.63,110.9381,27.31,28.18,17.28,0,111.3,13.07,28.15,44.8
"2010-07-16 01:50:00",3615,3.578,78.63,1.857,0.131,23.63,110.9378,27.31,28.17,17.41,0,111.3,13.07,28.15,40.6
"2010-07-16 01:50:30",3616,3.88,81.7,1.271,0.135,23.7,110.9388,27.31,28.16,17.21,0,111.3,13.07,28.15,43.7
"2010-07-16 01:51:00",3617,4.062,85.9,1.808,0.113,23.62,110.9388,27.31,28.16,17.12,0,111.3,13.07,28.15,47.9